MST,Max TemperatureF,Mean TemperatureF,Min TemperatureF,Max Dew PointF,MeanDew PointF,Min DewpointF,Max Humidity, Mean Humidity, Min Humidity, Max Sea Level PressureIn, Mean Sea Level PressureIn, Min Sea Level PressureIn, Max VisibilityMiles, Mean VisibilityMiles, Min VisibilityMiles, Max Wind SpeedMPH, Mean Wind SpeedMPH, Max Gust SpeedMPH,PrecipitationIn, CloudCover, Events, WindDirDegrees
2013-11-1,48,37,26,25,20,18,64,47,22,30.13,30.08,29.95,20,16,15,24,8,32,0.00,4,,283
2013-11-2,32,30,28,28,26,23,100,87,57,29.95,29.79,29.53,15,4,0,15,7,,0.24,8,Snow,340
2013-11-3,28,20,12,23,21,12,100,85,74,30.13,29.97,29.83,15,7,1,26,20,33,0.24,8,Snow,334
2013-11-4,23,16,8,14,11,7,92,75,58,30.23,30.19,30.15,20,15,10,7,4,,0.02,5,Snow,241
2013-11-5,32,15,-2,19,13,0,93,71,39,30.12,30.09,30.06,15,15,15,8,3,,0.00,6,,293
2013-11-6,36,25,14,19,14,9,86,62,42,30.39,30.29,30.19,20,16,15,14,6,,0.00,2,,304
2013-11-7,32,21,10,25,18,8,93,78,63,30.29,29.93,29.47,20,16,15,9,4,,0.00,6,,275
2013-11-8,29,17,5,25,19,1,100,85,66,30.18,29.98,29.78,15,8,0,21,9,36,0.08,5,Fog-Snow,314
2013-11-9,36,20,3,25,16,3,100,83,51,30.38,30.28,30.16,15,8,0,14,6,,0.00,4,Fog-Snow,338
2013-11-10,15,8,0,13,9,-4,92,88,82,30.52,30.44,30.24,15,8,0,12,9,,0.04,7,Fog-Snow,162
2013-11-11,30,12,-6,21,9,-4,93,76,51,30.54,30.49,30.42,15,15,15,8,4,,0.02,1,,296
2013-11-12,55,35,15,31,26,19,74,57,43,30.28,30.13,29.97,15,15,15,21,9,28,0.00,5,,283
2013-11-13,44,36,27,28,24,19,69,56,42,30.12,30.06,29.95,15,15,15,17,8,24,0.00,3,,282
2013-11-14,41,32,23,25,20,18,80,57,39,30.04,29.84,29.62,15,15,15,20,9,24,0.00,1,,264
2013-11-15,37,30,24,30,26,21,100,83,42,29.50,29.39,29.15,15,15,15,22,12,30,0.00,7,,174
2013-11-16,25,16,5,25,10,1,100,83,66,29.78,29.56,29.31,6,3,0,33,13,43,0.24,8,Snow,350
2013-11-17,12,1,-10,5,-3,-13,92,80,66,29.98,29.90,29.57,15,12,0,12,4,,0.02,2,Fog,300
2013-11-18,14,4,-6,7,2,-6,85,78,59,30.02,29.95,29.90,20,15,10,10,7,,0.01,5,Snow,14
2013-11-19,5,0,-4,0,-4,-9,85,75,56,30.12,29.95,29.85,20,8,0,16,10,,0.02,7,Snow,351
2013-11-20,8,-6,-19,-6,-13,-20,84,70,52,30.46,30.40,30.32,15,14,10,12,5,18,0.01,1,,305
2013-11-21,28,8,-12,10,7,-2,51,46,31,30.47,30.40,30.20,15,15,15,32,22,39,0.00,3,Snow,272
2013-11-22,25,12,0,10,5,-4,85,72,37,30.71,30.66,30.51,15,15,15,10,6,,0.00,3,,228
2013-11-23,49,28,7,25,18,9,73,52,30,30.50,30.26,29.93,15,15,15,25,9,31,0.00,6,,306
2013-11-24,41,32,21,25,21,16,93,67,47,30.39,30.19,30.06,15,15,15,17,8,22,0.00,3,,16
2013-11-25,29,20,12,23,19,14,93,84,74,30.51,30.48,30.43,15,15,15,7,5,,0.00,4,,316
2013-11-26,43,29,15,27,21,15,93,70,45,30.36,30.20,30.10,20,16,15,12,6,,0.00,6,,313
2013-11-27,47,29,11,23,14,-36,86,72,5,30.30,30.25,30.05,15,15,15,9,5,,0.00,4,,319
2013-11-28,45,28,10,28,23,7,93,66,45,30.15,30.02,29.87,15,15,15,24,8,32,0.00,4,,274
2013-11-29,37,32,27,28,26,23,87,76,62,30.15,30.05,29.99,15,15,15,7,5,,0.00,7,,308
2013-11-30,40,30,19,30,24,18,93,77,55,30.13,30.09,29.92,20,16,15,14,4,21,0.00,5,Rain,294